sat.trackr.live / text

‹ back to catalog

ONEWEB-0585

NORAD 54652 · 2022-166L

PAYLOAD ACTIVE UNKNOWN

§ Identity

Operator
Country
UK
Launch date
2022-12-08
Launch site
AFETR
Launch vehicle
Mass (kg)
RCS (m²)

Purposes: comms

External: N2YO · Heavens-Above · Gunter

§ Orbital elements

Epoch: 2026-09-20T04:27:25.492608Z

Period
108.94 min
Inclination
87.9288°
Eccentricity
0.0001954
Mean motion
13.21827363 rev/d
Perigee alt
1,176.3 km
Apogee alt
1,179.2 km
Semi-major
7,555.9 km
B*
1.7331e-4
RAAN
225.0626°
Arg perigee
75.5577°
Mean anomaly
284.5774°
Rev number
18,407

§ Raw data

ONEWEB-05851 54652U 22166L   26263.18571172  .00000085  00000+0  17331-3 0  99902 54652  87.9288 225.0626 0001954  75.5577 284.5774 13.21827363184077

JSON: /api/v1/satellites/54652 · /tle

For live sub-satellite position, see the globe view (requires WebGL).

§ Visibility from observer

Set your observer location to see the next 7 days of passes ≥ 10°. The values pass through the URL so the page stays shareable.

No JS? Fill the form by hand. The geolocation button needs JavaScript.